Gustavus, AK

9:06 AM AKST on February 24, 2018 (GMT -0900)
Gustavus

Weather History for PAGS - January, 2013

Change the Weather History Date:

Wednesday, January 2, 2013

  Actual Average Record
Temperature  
Mean Temperature 35 °F -  
Max Temperature 37 °F 30 °F 47 °F (1958)
Min Temperature 33 °F 20 °F -14 °F (1997)
Degree Days  
Heating Degree Days 30    
Moisture  
Dew Point 31 °F    
Average Humidity 86    
Maximum Humidity 93    
Minimum Humidity 75    
Precipitation  
Precipitation 0.00 in - - ()
Sea Level Pressure  
Sea Level Pressure 29.86 in    
Wind  
Wind Speed 4 mph (ESE)    
Max Wind Speed 13 mph    
Max Gust Speed 16 mph    
Visibility 6 miles    
Events      
Averages and records for this station are not official NWS values.
T = Trace of Precipitation, MM = Missing Value Source: NWS Daily Summary

Daily Weather History Graph

Daily Weather History Graph

Search for Another Location

Airport or City:

Trip Planner

Search our weather history database for the weather conditions in past years. The results will help you decide how hot, cold, wet, or windy it might be!

Date:

Astronomy

Jan. 02, 2013 Rise Set
Actual Time 8:50 AM AKST 3:23 PM AKST
Civil Twilight 7:58 AM AKST 4:15 PM AKST
Nautical Twilight 7:06 AM AKST 5:08 PM AKST
Astronomical Twilight 6:17 AM AKST 5:57 PM AKST
Moon 10:31 PM AKST (1/2) 10:16 AM AKST (1/2)
Length of Visible Light 8h 16m
Length of Day
6h 32m
Waning Gibbous, 74% of the Moon is Illuminated
Jan 2
Waning Gibbous
Jan 4
Last Quarter
Jan 11
New
Jan 18
First Quarter
Jan 26
Full

Hourly Weather History & Observations

Time (AKST) Temp. Windchill Dew Point Humidity Pressure Visibility Wind Dir Wind Speed Gust Speed Precip Events Conditions
12:16 AM 37.4 °F 30.3 °F 33.8 °F 87% 29.84 in 10.0 mi ESE 10.4 mph - N/A   Overcast
12:36 AM 37.4 °F 30.3 °F 33.8 °F 87% 29.83 in 10.0 mi ESE 10.4 mph - N/A   Overcast
12:56 AM 37.4 °F 29.3 °F 33.8 °F 87% 29.83 in 10.0 mi ESE 12.7 mph - N/A   Overcast
1:16 AM 37.4 °F 29.3 °F 33.8 °F 87% 29.84 in 10.0 mi SE 12.7 mph 16.1 mph N/A   Overcast
1:36 AM 37.4 °F 29.3 °F 33.8 °F 87% 29.83 in 10.0 mi SE 12.7 mph - N/A   Overcast
1:56 AM 37.4 °F 30.8 °F 33.8 °F 87% 29.83 in 10.0 mi SE 9.2 mph - N/A   Mostly Cloudy
2:16 AM 37.4 °F 34.9 °F 33.8 °F 87% 29.83 in 10.0 mi SSE 3.5 mph - N/A   Mostly Cloudy
2:36 AM 37.4 °F 32.1 °F 32.0 °F 81% 29.83 in 10.0 mi SE 6.9 mph - N/A   Mostly Cloudy
2:56 AM 37.4 °F - 32.0 °F 81% 29.83 in 10.0 mi Calm Calm - N/A   Mostly Cloudy
3:16 AM 37.4 °F - 32.0 °F 81% 29.83 in 10.0 mi Calm Calm - N/A   Mostly Cloudy
3:36 AM 37.4 °F 34.9 °F 32.0 °F 81% 29.83 in 10.0 mi South 3.5 mph - N/A   Mostly Cloudy
3:56 AM 35.6 °F - 32.0 °F 87% 29.83 in 10.0 mi Calm Calm - N/A   Mostly Cloudy
4:16 AM 37.4 °F - 33.8 °F 87% 29.83 in 10.0 mi Calm Calm - N/A   Overcast
4:36 AM 37.4 °F - 30.2 °F 75% 29.82 in 10.0 mi Calm Calm - N/A   Overcast
4:56 AM 35.6 °F 32.8 °F 30.2 °F 81% 29.82 in 10.0 mi North 3.5 mph - N/A   Mostly Cloudy
5:16 AM 33.8 °F - 30.2 °F 87% 29.81 in 10.0 mi Calm Calm - N/A   Mostly Cloudy
5:36 AM 33.8 °F 30.8 °F 30.2 °F 87% 29.82 in 10.0 mi NW 3.5 mph - N/A   Overcast
5:56 AM 33.8 °F - 30.2 °F 87% 29.81 in 10.0 mi Calm Calm - N/A   Overcast
6:16 AM 33.8 °F - 30.2 °F 87% 29.82 in 10.0 mi Calm Calm - N/A   Overcast
6:36 AM 33.8 °F - 30.2 °F 87% 29.81 in 10.0 mi Calm Calm - N/A   Overcast
6:56 AM 33.8 °F - 30.2 °F 87% 29.82 in 10.0 mi Calm Calm - N/A   Overcast
7:16 AM 33.8 °F - 28.4 °F 81% 29.81 in 10.0 mi Calm Calm - N/A   Overcast
7:36 AM 33.8 °F - 30.2 °F 87% 29.82 in 10.0 mi Calm Calm - N/A   Overcast
7:56 AM 33.8 °F - 30.2 °F 87% 29.82 in 10.0 mi Calm Calm - N/A   Overcast
8:16 AM 33.8 °F - 30.2 °F 87% 29.81 in 10.0 mi Calm Calm - N/A   Mostly Cloudy
8:36 AM 35.6 °F - 33.8 °F 93% 29.81 in 10.0 mi Calm Calm - N/A   Scattered Clouds
8:56 AM 33.8 °F - 28.4 °F 81% 29.82 in 10.0 mi Calm Calm - N/A   Mostly Cloudy
9:16 AM 33.8 °F - 30.2 °F 87% 29.83 in 10.0 mi Calm Calm - N/A   Overcast
9:36 AM 33.8 °F - 30.2 °F 87% 29.83 in 10.0 mi Calm Calm - N/A   Overcast
9:56 AM 33.8 °F - 30.2 °F 87% 29.83 in 10.0 mi Calm Calm - N/A   Overcast
10:16 AM 33.8 °F - 30.2 °F 87% 29.84 in 10.0 mi Calm Calm - N/A   Overcast
10:36 AM 33.8 °F - 30.2 °F 87% 29.84 in 10.0 mi Calm Calm - N/A   Overcast
10:56 AM 33.8 °F - 30.2 °F 87% 29.84 in 10.0 mi Calm Calm - N/A   Overcast
11:16 AM 33.8 °F - 30.2 °F 87% 29.84 in 10.0 mi Calm Calm - N/A   Overcast
11:36 AM 35.6 °F - 30.2 °F 81% 29.84 in 1.5 mi Calm Calm - N/A   Overcast
11:56 AM 35.6 °F - 32.0 °F 87% 29.84 in 1.0 mi Calm Calm - N/A   Overcast
12:16 PM 35.6 °F - 32.0 °F 87% 29.84 in 0.5 mi Calm Calm - N/A   Overcast
12:36 PM 35.6 °F - 32.0 °F 87% 29.84 in 0.5 mi Calm Calm - N/A   Overcast
12:56 PM 35.6 °F - 32.0 °F 87% 29.85 in 0.5 mi Calm Calm - N/A   Overcast
1:16 PM 37.4 °F - 33.8 °F 87% 29.85 in 0.5 mi Calm Calm - N/A   Overcast
1:36 PM 37.4 °F - 33.8 °F 87% 29.85 in 0.5 mi Calm Calm - N/A   Overcast
1:56 PM 37.4 °F - 33.8 °F 87% 29.84 in 2.0 mi Calm Calm - N/A   Overcast
2:16 PM 37.4 °F 34.9 °F 33.8 °F 87% 29.84 in 10.0 mi ESE 3.5 mph - N/A   Overcast
2:36 PM 37.4 °F - 33.8 °F 87% 29.85 in 2.0 mi Calm Calm - N/A   Overcast
2:56 PM 35.6 °F - 32.0 °F 87% 29.86 in 0.8 mi Calm Calm - N/A   Overcast
3:16 PM 35.6 °F - 32.0 °F 87% 29.86 in 0.2 mi Calm Calm - N/A   Overcast
3:36 PM 35.6 °F - 32.0 °F 87% 29.87 in 0.5 mi Calm Calm - N/A   Overcast
3:56 PM 35.6 °F - 32.0 °F 87% 29.87 in 2.0 mi Calm Calm - N/A   Overcast
4:36 PM 33.8 °F 30.8 °F 30.2 °F 87% 29.88 in 1.2 mi North 3.5 mph - N/A   Overcast
4:56 PM 35.6 °F 31.7 °F 30.2 °F 81% 29.88 in 1.0 mi NNW 4.6 mph - N/A   Overcast
5:16 PM 35.6 °F - 32.0 °F 87% 29.88 in 0.8 mi Calm Calm - N/A   Overcast
5:36 PM 33.8 °F - 30.2 °F 87% 29.88 in 0.8 mi Calm Calm - N/A   Overcast
5:56 PM 33.8 °F - 30.2 °F 87% 29.89 in 0.5 mi Calm Calm - N/A   Overcast
6:16 PM 33.8 °F - 30.2 °F 87% 29.89 in 0.5 mi Calm Calm - N/A   Overcast
6:36 PM 33.8 °F - 30.2 °F 87% 29.90 in 0.8 mi Calm Calm - N/A   Overcast
6:56 PM 33.8 °F - 30.2 °F 87% 29.90 in 0.8 mi Calm Calm - N/A   Overcast
7:16 PM 33.8 °F - 30.2 °F 87% 29.91 in 0.8 mi Calm Calm - N/A   Overcast
7:36 PM 33.8 °F - 30.2 °F 87% 29.91 in 0.8 mi Calm Calm - N/A   Overcast
7:56 PM 33.8 °F - 30.2 °F 87% 29.92 in 1.0 mi Calm Calm - N/A   Overcast
8:16 PM 33.8 °F - 30.2 °F 87% 29.93 in 1.8 mi Calm Calm - N/A   Overcast
8:36 PM 33.8 °F - 30.2 °F 87% 29.93 in 2.5 mi Calm Calm - N/A   Overcast
8:56 PM 33.8 °F - 30.2 °F 87% 29.94 in 2.0 mi Calm Calm - N/A   Overcast
9:16 PM 33.8 °F - 30.2 °F 87% 29.95 in 2.0 mi Calm Calm - N/A   Overcast
9:36 PM 33.8 °F - 30.2 °F 87% 29.96 in 1.0 mi Calm Calm - N/A   Overcast
9:56 PM 33.8 °F - 30.2 °F 87% 29.97 in 1.0 mi Calm Calm - N/A   Overcast
10:16 PM 33.8 °F - 30.2 °F 87% 29.97 in 10.0 mi Calm Calm - N/A   Overcast
10:36 PM 35.6 °F 31.7 °F 32.0 °F 87% 29.97 in 10.0 mi East 4.6 mph - N/A   Overcast
10:56 PM 35.6 °F - 30.2 °F 81% 29.97 in 8.0 mi Calm Calm - N/A   Overcast
11:16 PM 35.6 °F 31.7 °F 32.0 °F 87% 29.98 in 10.0 mi SE 4.6 mph - N/A   Overcast
11:36 PM 35.6 °F 32.8 °F 32.0 °F 87% 29.99 in 10.0 mi ENE 3.5 mph - N/A   Overcast
11:56 PM 35.6 °F - 30.2 °F 81% 29.99 in 10.0 mi Calm Calm - N/A   Overcast